Location: Christianberg
(48.9086°N, 14.0209°E)
Time: 22:36:42
(UTC+00:00)

Cosmos 1242 Rocket - Pass Details

Date: 20 June 2021
Orbit: 446 x 483 km, 81.2° (Epoch: 04 August)

Event Time Altitude Azimuth Distance (km) Brightness Sun altitude
Rises 00:18:22 0° 350° (N) 2,524 7.3 -15.8°
Reaches altitude 10° 00:20:28 10° 353° (N) 1,648 6.3 -15.7°
Maximum altitude 00:24:04 69° 77° (ENE) 513 2.7 -15.6°
Enters shadow 00:26:09 24° 157° (SSE) 1,041 3.8 -15.4°
